Wind_Speed
4 5 6 7 7 5 5 5 6 5 5 5 5 5 6 5 4 3 3 3 2 1 1 1 2 3 4 5 6 6 7 7 8 8 8 9 9 9 9 10 10 10 11
4 5 5 6 6 4 4 5 5 5 5 5 5 5 5 5 4 4 3 3 3 3 2 2 3 4 4 5 6 7 8 9 9 10 10 10 10 10 11 11 12 12 12
4 5 5 5 5 4 3 3 4 5 5 5 4 4 4 4 4 3 4 4 3 3 4 4 5 5 5 5 6 7 8 9 9 10 11 11 11 11 11 11 12 12 12
5 5 5 4 5 4 3 3 4 4 5 4 4 3 4 4 3 4 3 4 4 4 4 5 5 6 6 7 7 8 8 9 10 10 11 11 11 11 11 11 12 13 13
7 7 6 6 6 4 4 4 3 3 4 4 4 3 4 4 4 5 5 5 5 6 6 6 6 6 7 7 8 8 8 9 10 11 11 12 12 12 12 13 13 13 13
9 9 8 8 7 6 6 5 4 3 3 4 4 4 5 5 6 6 6 6 6 7 7 7 8 8 8 8 8 9 10 10 11 12 12 13 13 13 13 13 14 14 14
11 11 10 10 9 9 8 7 6 5 5 5 5 6 6 7 7 8 8 8 8 8 8 9 9 9 10 10 10 10 11 12 12 12 13 14 14 13 14 14 15 15 15
14 13 12 11 11 10 9 9 8 7 7 7 7 8 8 9 9 10 10 10 10 10 11 11 11 11 11 11 12 12 12 13 14 14 15 15 15 15 15 15 16 16 16
16 17 16 15 13 13 11 11 11 10 9 9 9 10 10 11 11 11 11 12 12 13 13 13 13 12 13 13 13 14 14 15 15 16 16 15 15 15 15 16 17 17 17
19 18 17 16 15 14 13 13 12 12 12 12 12 12 12 13 13 14 14 14 14 15 15 15 15 15 14 15 15 16 15 16 17 17 17 16 17 17 18 18 19 19 20
20 19 18 18 17 16 15 14 13 14 14 14 14 14 14 14 15 15 16 16 16 16 16 17 16 17 17 17 18 18 18 18 18 19 19 18 18 19 19 19 20 21 21
20 20 20 19 18 17 17 16 16 14 15 16 16 16 16 16 17 17 18 18 18 18 18 18 18 19 19 19 19 19 20 20 21 21 20 20 20 21 21 21 22 22 23
21 21 20 19 19 19 19 19 19 18 17 17 17 18 18 18 18 19 20 20 20 21 21 21 22 22 22 22 22 22 22 22 22 22 22 21 21 21 22 22 23 23 24
23 22 21 21 20 20 21 21 21 20 19 19 19 19 20 20 21 22 22 22 22 23 23 24 24 24 24 24 24 23 23 23 23 22 22 22 23 23 23 24 24 24 25
24 23 23 22 21 21 22 22 22 22 22 21 21 22 22 22 23 24 24 24 24 25 25 25 25 26 26 25 26 25 25 25 25 24 24 24 25 25 26 26 26 27 27
25 24 24 24 23 23 23 24 24 23 23 23 23 23 24 24 26 26 26 26 26 25 26 26 26 26 27 27 27 28 27 26 26 26 26 27 27 28 28 29 29 30 29
26 26 26 26 25 25 25 25 26 26 26 26 26 26 26 26 27 28 28 27 27 27 27 28 28 28 28 28 29 29 28 27 27 28 28 29 30 31 31 31 32 31 31
29 29 29 29 29 28 28 28 29 29 29 29 29 28 29 28 29 29 28 29 29 29 29 29 29 29 29 30 30 31 31 30 29 30 30 31 32 32 33 33 33 33 33
32 32 31 31 31 31 31 31 31 31 30 30 30 29 30 30 30 30 31 31 31 31 31 31 31 31 31 31 31 32 32 32 32 32 32 33 33 33 34 35 34 33 32
33 33 32 32 32 32 32 32 33 33 32 30 30 30 31 31 31 32 32 33 33 33 33 33 33 32 32 33 33 33 33 33 33 33 34 34 34 35 35 35 34 33 33
33 33 32 32 31 31 31 32 32 33 32 32 31 31 33 33 33 33 34 34 34 34 34 34 34 34 34 33 33 33 34 33 34 34 34 34 34 34 35 35 35 34 34
34 34 33 32 32 32 32 32 33 33 33 33 33 33 34 34 34 34 34 35 35 35 35 35 35 34 34 34 33 33 33 34 34 33 33 34 34 34 34 33 34 34 34
35 34 33 33 33 34 34 34 33 34 35 35 34 34 33 34 35 35 35 35 35 35 34 34 34 34 33 33 33 33 33 33 34 33 33 32 32 33 33 33 34 34 34
36 35 35 34 35 35 34 34 34 35 36 36 36 35 35 35 35 35 35 34 34 35 35 34 33 33 32 32 32 32 33 34 33 33 33 32 32 32 32 33 33 33 33
36 35 35 35 35 35 35 35 35 36 36 36 36 36 35 34 34 34 34 35 34 34 34 33 33 33 33 32 32 32 33 34 34 33 32 32 32 32 32 33 34 33 33
35 36 36 36 36 36 35 36 36 36 36 36 35 34 34 34 34 33 33 33 34 34 34 33 33 32 32 32 31 32 33 33 32 32 31 31 32 32 32 33 32 33 33
Wind_Direction
28 28 26 22 21 30 29 30 35 41 43 42 44 51 54 55 57 55 46 41 30 10 336 288 276 268 259 251 254 256 261 264 269 276 276 272 272 272 273 273 271 269 270
1 4 12 9 7 15 23 22 28 33 32 30 36 44 43 46 42 37 27 11 359 346 338 313 299 285 275 268 260 257 262 264 265 267 272 277 278 276 275 275 273 271 269
328 337 350 356 358 1 15 15 17 21 23 26 31 31 30 27 23 16 6 1 340 324 323 316 302 297 285 277 274 272 269 267 266 267 272 275 275 274 274 274 273 271 269
307 312 317 319 321 329 340 342 349 6 11 12 17 21 16 6 4 5 359 351 345 332 323 319 311 302 295 287 281 280 276 273 274 274 273 276 274 273 272 274 274 272 271
293 293 294 294 296 300 294 310 323 338 353 0 1 1 357 349 345 345 345 340 332 330 325 321 315 309 304 298 289 283 282 281 279 276 275 276 277 276 275 276 276 274 272
283 282 280 282 285 280 280 285 296 302 316 332 341 341 337 334 329 327 329 329 328 327 320 319 315 310 305 301 297 291 285 285 284 281 278 278 277 277 279 279 278 277 277
275 276 275 279 278 276 273 273 275 279 288 301 313 317 318 320 322 324 321 320 320 322 321 318 313 309 306 300 296 293 288 285 283 281 282 282 280 278 278 280 280 279 279
269 270 272 274 271 268 268 265 263 268 275 283 292 304 309 312 316 318 317 317 315 314 312 308 305 302 302 301 296 291 290 287 286 284 283 283 280 278 278 278 279 278 278
268 269 269 269 266 264 264 259 256 261 267 274 283 293 300 304 305 306 306 307 308 308 307 305 301 299 298 295 294 294 292 289 289 287 284 281 281 280 279 278 278 278 278
267 267 268 265 263 263 259 258 258 258 261 267 277 286 291 296 297 299 300 300 300 301 301 299 299 295 293 293 292 290 290 289 288 286 284 281 281 280 280 278 279 278 278
263 264 267 264 260 260 258 258 260 260 264 270 276 281 286 289 292 295 296 297 297 297 297 297 297 294 292 292 292 291 289 288 288 286 283 281 281 280 280 280 282 282 281
258 260 262 261 260 259 260 262 261 268 268 270 274 279 284 287 290 292 292 293 295 295 295 295 294 293 292 292 290 288 288 286 287 285 282 282 280 280 280 282 283 283 282
257 259 257 255 258 259 258 260 264 267 268 270 273 278 281 285 288 289 290 291 292 292 293 292 293 292 292 291 290 287 286 286 286 284 282 281 279 279 281 283 284 284 282
256 258 257 255 258 260 261 262 263 266 269 270 273 276 279 282 285 287 288 289 290 291 292 292 291 291 290 290 290 288 285 285 286 284 283 281 279 279 281 281 283 283 283
258 258 257 255 257 259 262 264 264 266 268 271 273 274 276 279 282 283 284 286 288 289 289 291 292 290 289 288 289 291 289 286 285 285 283 282 281 281 282 282 283 284 284
259 259 258 257 258 259 261 263 265 267 269 269 272 273 274 277 280 282 283 284 286 288 289 289 290 289 288 287 287 288 289 288 286 285 283 282 282 282 283 283 283 282 283
258 257 256 256 257 259 261 263 265 268 270 271 272 275 278 278 278 280 281 282 283 285 286 286 286 287 287 287 287 288 286 286 284 283 283 284 285 285 285 284 284 283 282
257 257 257 258 258 257 258 261 264 267 270 271 272 274 277 278 278 280 280 281 282 283 284 285 285 284 285 285 285 286 286 284 283 282 282 283 284 284 285 285 285 283 282
257 257 258 258 258 258 259 261 264 267 269 271 273 272 274 276 278 279 281 282 282 282 283 284 284 284 285 285 286 286 286 285 284 282 282 282 283 283 284 283 282 282 281
256 258 259 259 259 260 260 263 265 268 270 271 273 273 274 275 276 278 280 280 281 282 282 283 284 283 283 283 283 284 286 286 285 283 282 283 282 283 284 283 282 281 280
255 257 258 259 260 261 261 261 264 268 270 272 274 274 274 276 277 277 279 280 281 282 283 283 284 284 284 283 283 284 284 285 286 285 282 283 284 284 283 283 282 281 280
255 256 258 260 262 264 265 264 266 268 270 272 273 275 276 276 277 278 278 278 280 282 282 283 284 284 283 283 283 285 285 285 286 286 284 283 283 285 284 283 283 282 280
256 256 257 259 262 264 267 268 268 269 271 272 274 275 276 277 277 277 278 278 280 282 283 283 284 284 282 282 283 284 285 286 286 286 286 284 283 284 283 283 283 282 281
255 256 257 260 263 264 266 268 269 271 272 273 275 276 277 277 277 275 276 278 280 282 284 283 282 282 281 282 283 284 285 286 286 286 286 287 287 285 283 283 282 282 282
254 255 257 259 261 263 265 268 269 270 272 274 275 276 276 276 275 275 275 278 280 282 283 283 283 280 280 280 281 283 284 285 285 285 285 286 286 287 286 285 284 282 282
254 255 256 258 260 263 265 267 268 269 272 273 274 275 276 276 275 274 275 278 280 281 281 281 280 280 280 280 281 283 283 284 285 284 285 286 287 287 287 287 286 285 282
Height
5905 5904 5903 5902 5901 5901 5900 5899 5898 5897 5897 5896 5896 5895 5894 5894 5893 5893 5893 5892 5892 5892 5892 5892 5892 5892 5892 5892 5892 5892 5893 5893 5893 5893 5893 5893 5893 5893 5893 5893 5892 5892 5892
5904 5904 5903 5902 5901 5901 5900 5900 5899 5898 5897 5897 5896 5895 5895 5894 5894 5894 5893 5893 5893 5892 5892 5892 5892 5891 5891 5891 5891 5891 5891 5891 5891 5891 5891 5891 5892 5891 5890 5890 5890 5890 5889
5904 5903 5902 5901 5901 5900 5900 5900 5899 5898 5897 5897 5896 5896 5896 5895 5894 5894 5893 5893 5892 5892 5892 5891 5891 5891 5890 5890 5889 5889 5889 5889 5889 5889 5889 5889 5889 5889 5888 5887 5887 5887 5886
5903 5902 5900 5900 5899 5899 5899 5899 5898 5898 5897 5897 5896 5896 5895 5895 5894 5894 5893 5892 5892 5891 5891 5890 5890 5889 5889 5888 5887 5887 5887 5887 5887 5886 5886 5886 5886 5886 5886 5885 5885 5884 5884
5901 5900 5899 5898 5898 5898 5897 5897 5897 5897 5897 5897 5896 5896 5895 5895 5894 5893 5892 5892 5891 5890 5890 5889 5888 5888 5887 5886 5885 5885 5884 5884 5884 5884 5884 5883 5883 5883 5883 5882 5882 5881 5881
5899 5898 5897 5897 5896 5896 5896 5896 5896 5896 5896 5896 5896 5895 5895 5894 5893 5893 5892 5891 5890 5889 5888 5887 5887 5886 5885 5884 5883 5883 5882 5882 5881 5881 5881 5880 5880 5880 5879 5879 5878 5878 5878
5896 5895 5895 5895 5895 5894 5894 5894 5894 5895 5895 5895 5894 5894 5894 5893 5892 5891 5890 5889 5889 5888 5887 5886 5885 5884 5883 5882 5881 5880 5880 5879 5878 5878 5877 5877 5876 5876 5876 5875 5875 5874 5874
5892 5892 5892 5892 5892 5892 5892 5892 5892 5892 5893 5893 5893 5892 5892 5891 5890 5890 5889 5888 5887 5886 5885 5884 5883 5882 5881 5879 5879 5878 5877 5876 5875 5874 5874 5873 5872 5872 5872 5871 5871 5870 5870
5888 5888 5889 5889 5888 5888 5889 5889 5889 5890 5890 5890 5890 5890 5889 5889 5888 5887 5887 5886 5885 5883 5882 5881 5880 5879 5878 5877 5876 5875 5873 5872 5872 5871 5870 5869 5869 5868 5867 5867 5867 5866 5866
5884 5884 5884 5885 5885 5885 5886 5885 5886 5886 5887 5887 5887 5887 5887 5886 5885 5885 5884 5883 5882 5881 5879 5878 5877 5876 5874 5873 5872 5871 5870 5869 5868 5867 5866 5865 5864 5864 5863 5862 5862 5861 5861
5879 5880 5880 5880 5881 5881 5882 5881 5882 5881 5882 5883 5884 5883 5883 5883 5882 5881 5880 5879 5878 5877 5876 5875 5873 5872 5871 5869 5868 5867 5865 5864 5863 5862 5861 5860 5859 5859 5858 5857 5857 5856 5855
5873 5874 5875 5875 5876 5877 5877 5878 5878 5878 5878 5879 5879 5879 5879 5879 5878 5877 5876 5875 5874 5873 5872 5870 5869 5868 5866 5865 5863 5862 5861 5859 5858 5857 5856 5855 5854 5854 5853 5852 5851 5850 5850
5868 5868 5869 5870 5871 5872 5873 5873 5873 5873 5873 5873 5873 5874 5874 5873 5873 5872 5871 5870 5869 5868 5867 5866 5864 5863 5861 5860 5858 5857 5855 5854 5852 5851 5850 5849 5849 5848 5847 5847 5845 5844 5843
5862 5863 5864 5865 5865 5866 5867 5868 5868 5868 5867 5867 5867 5868 5868 5867 5867 5866 5865 5864 5863 5862 5861 5860 5858 5857 5855 5854 5852 5851 5849 5848 5846 5845 5844 5844 5843 5842 5841 5840 5839 5838 5837
5855 5856 5857 5858 5859 5860 5861 5861 5861 5861 5861 5861 5861 5861 5861 5861 5861 5860 5859 5858 5857 5856 5854 5853 5852 5850 5849 5847 5846 5844 5843 5841 5840 5839 5838 5837 5836 5835 5835 5834 5833 5831 5830
5849 5849 5850 5851 5852 5853 5854 5854 5854 5854 5854 5854 5855 5855 5854 5854 5854 5854 5852 5851 5850 5849 5847 5846 5845 5843 5842 5840 5839 5837 5836 5834 5833 5832 5831 5830 5829 5828 5827 5826 5825 5824 5822
5841 5842 5843 5844 5845 5845 5846 5847 5847 5848 5847 5848 5848 5847 5846 5846 5847 5846 5845 5844 5843 5841 5840 5839 5837 5835 5834 5833 5831 5830 5828 5827 5826 5824 5823 5822 5821 5820 5819 5817 5816 5814 5814
5833 5834 5835 5836 5836 5837 5838 5839 5839 5839 5840 5840 5840 5840 5839 5839 5839 5838 5837 5836 5835 5833 5832 5831 5829 5828 5826 5824 5823 5822 5820 5819 5817 5816 5815 5814 5813 5811 5809 5808 5806 5805 5804
5824 5825 5827 5827 5828 5829 5830 5830 5831 5831 5831 5832 5832 5832 5832 5831 5830 5830 5829 5827 5826 5825 5824 5822 5821 5819 5818 5816 5814 5813 5811 5810 5809 5807 5806 5805 5803 5802 5800 5798 5797 5796 5795
5815 5816 5817 5818 5819 5820 5821 5822 5823 5823 5823 5823 5823 5823 5823 5823 5822 5821 5820 5818 5817 5816 5815 5813 5812 5810 5808 5807 5805 5804 5802 5801 5799 5798 5796 5795 5793 5792 5790 5788 5787 5786 5785
5805 5806 5808 5809 5810 5811 5811 5813 5814 5814 5814 5814 5814 5814 5814 5813 5812 5811 5810 5809 5807 5806 5805 5804 5802 5800 5799 5798 5796 5794 5793 5791 5790 5788 5787 5785 5783 5781 5780 5778 5777 5776 5775
5795 5797 5798 5800 5801 5802 5802 5803 5804 5804 5804 5805 5804 5804 5804 5803 5802 5801 5801 5799 5798 5796 5795 5793 5792 5790 5789 5788 5786 5785 5783 5782 5780 5778 5777 5775 5773 5771 5769 5768 5767 5765 5764
5786 5788 5789 5790 5791 5792 5793 5794 5794 5794 5795 5795 5795 5794 5794 5793 5792 5791 5790 5789 5788 5786 5785 5783 5782 5781 5779 5778 5776 5775 5773 5772 5770 5768 5767 5765 5763 5761 5759 5758 5756 5755 5754
5776 5778 5779 5780 5782 5783 5783 5784 5785 5785 5785 5785 5785 5784 5784 5783 5782 5781 5780 5779 5778 5777 5775 5773 5772 5771 5770 5768 5767 5765 5764 5762 5760 5759 5757 5755 5753 5751 5750 5748 5746 5745 5743
5765 5767 5769 5770 5772 5773 5774 5774 5775 5775 5774 5774 5774 5773 5773 5772 5772 5771 5770 5770 5769 5767 5766 5764 5763 5762 5761 5759 5758 5756 5755 5753 5751 5749 5747 5746 5744 5742 5740 5738 5736 5735 5733
5755 5757 5759 5760 5762 5763 5764 5764 5764 5764 5764 5764 5764 5763 5763 5762 5762 5761 5760 5759 5759 5757 5756 5754 5753 5752 5751 5750 5748 5747 5745 5743 5742 5740 5738 5736 5734 5732 5730 5728 5726 5725 5723